K9APR Weather Reports


time (UTC)temp
C
wind
direction
speed
KPH
gust
KPH
rain 1hr
cm
rain 24hr
cm
rain mn
cm
humidity
%
barometer
mb
20260905170923 19 0 0.0 0.0 0.00 0.89 0.36 91 1013.3
20260905170023 19 0 0.0 0.0 0.00 0.89 0.36 91 1013.2
20260905165124 19 0 0.0 0.0 0.00 0.89 0.36 91 1013.4
20260905164224 19 0 0.0 0.0 0.00 0.89 0.36 91 1013.6
20260905163323 19 0 0.0 0.0 0.00 0.89 0.36 91 1013.4
20260905162427 19 0 0.0 0.0 0.00 0.89 0.36 91 1013.9
20260905161523 19 0 0.0 0.0 0.00 0.89 0.36 91 1014.1
20260905160623 19 0 0.0 0.0 0.00 0.89 0.36 91 1014.0
20260905155723 19 0 0.0 0.0 0.00 0.89 0.36 91 1014.1
20260905154822 19 0 0.0 0.0 0.00 0.89 0.36 91 1013.7
20260905153922 19 0 0.0 0.0 0.00 0.89 0.36 91 1014.0
20260905153023 19 0 0.0 0.0 0.00 0.89 0.36 91 1013.9
20260905152123 19 0 0.0 0.0 0.00 0.89 0.36 91 1014.0
20260905151224 19 0 0.0 0.0 0.00 0.89 0.36 91 1013.8
20260905150326 19 0 0.0 0.0 0.00 0.89 0.36 91 1013.6
20260905145423 19 0 0.0 0.0 0.00 0.89 0.36 91 1013.6
20260905144524 19 0 0.0 0.0 0.00 0.89 0.36 91 1013.4
20260905144210 19 0 0.0 0.0 0.00 0.89 0.36 91 1013.6
20260905143824 19 0 0.0 0.0 0.00 0.89 0.36 91 1013.6
20260905143624 19 0 0.0 0.0 0.00 0.89 0.36 91 1013.6
20260905142724 19 0 0.0 0.0 0.00 0.89 0.36 91 1013.8
20260905141824 19 0 0.0 0.0 0.00 0.89 0.36 91 1013.7
20260905140923 19 0 0.0 0.0 0.00 0.89 0.36 91 1013.9
20260905140023 19 0 0.0 0.0 0.00 0.89 0.36 91 1013.9
20260905135123 19 0 0.0 0.0 0.00 0.89 0.36 91 1013.7
20260905134223 19 0 0.0 0.0 0.00 0.89 0.36 91 1014.0
20260905133322 19 0 0.0 0.0 0.00 0.89 0.36 91 1014.0
20260905132428 19 0 0.0 0.0 0.00 0.89 0.36 91 1014.2
20260905131524 19 0 0.0 0.0 0.00 0.89 0.36 91 1014.3
20260905130623 19 0 0.0 0.0 0.00 0.89 0.36 91 1014.4
20260905125723 19 0 0.0 0.0 0.00 0.89 0.36 91 1014.6
20260905125029 19 0 0.0 0.0 0.00 0.89 0.36 91 1014.6
20260905124824 19 0 0.0 0.0 0.00 0.89 0.36 91 1014.6
20260905123923 19 0 0.0 0.0 0.00 0.89 0.36 91 1014.6
20260905123024 19 0 0.0 0.0 0.00 0.89 0.36 91 1014.6
20260905122126 19 0 0.0 0.0 0.00 0.89 0.36 91 1014.3
20260905121307 19 0 0.0 0.0 0.00 0.89 0.36 91 1014.2
20260905121224 19 0 0.0 0.0 0.00 0.89 0.36 91 1014.2
20260905120322 19 0 0.0 0.0 0.00 0.89 0.36 91 1014.0
20260905115422 19 0 0.0 0.0 0.00 0.89 0.36 91 1013.9
20260905114620 19 0 0.0 0.0 0.00 0.89 0.36 91 1013.8
20260905114522 19 0 0.0 0.0 0.00 0.89 0.36 91 1013.8
20260905113622 19 297 0.0 0.0 0.00 0.89 0.36 91 1014.2
20260905112723 19 297 0.0 0.0 0.00 0.89 0.36 91 1014.5
20260905111824 19 297 0.0 0.0 0.00 0.89 0.36 91 1014.4
20260905110922 19 297 0.0 0.0 0.00 0.89 0.36 91 1014.3
20260905110024 19 297 0.0 0.0 0.03 0.89 0.36 91 1014.8
20260905105125 19 257 0.0 1.6 0.15 0.89 0.36 91 1015.3
20260905104223 19 302 0.0 3.2 0.23 0.89 0.36 91 1014.9
20260905103442 19 114 0.0 0.0 0.36 0.89 0.36 91 1014.6
20260905103323 19 114 0.0 0.0 0.36 0.89 0.36 91 1014.6
20260905102423 19 113 0.0 0.0 0.36 0.89 0.36 91 1015.3
20260905101523 19 113 0.0 0.0 0.36 0.89 0.36 91 1014.8
20260905100624 20 137 0.0 0.0 0.33 0.86 0.33 90 1014.7
20260905095808 20 147 0.0 1.6 0.33 0.86 0.33 90 1014.7
20260905095724 20 147 0.0 1.6 0.33 0.86 0.33 90 1014.7
20260905094823 20 199 0.0 1.6 0.15 0.69 0.15 89 1015.0
20260905093922 20 39 0.0 4.8 0.00 0.53 0.00 88 1015.0
20260905093023 20 343 1.6 4.8 0.00 0.53 0.00 89 1014.9
20260905092123 20 165 1.6 3.2 0.00 0.53 0.00 90 1014.8
20260905091256 21 285 3.2 8.0 0.00 0.53 0.00 91 1014.8
20260905091224 21 285 3.2 8.0 0.00 0.53 0.00 91 1014.8
20260905090323 21 124 0.0 1.6 0.00 0.53 0.00 92 1013.8
20260905085423 21 129 0.0 0.0 0.00 0.53 0.00 92 1013.3
20260905084523 21 129 0.0 0.0 0.00 0.53 0.00 92 1013.5
20260905083622 21 129 0.0 0.0 0.00 0.53 0.00 92 1013.2
20260905082724 21 129 0.0 0.0 0.00 0.53 0.00 92 1013.1
20260905081825 21 129 0.0 0.0 0.00 0.53 0.00 92 1012.9
20260905080923 21 129 0.0 0.0 0.00 0.53 0.00 92 1013.0
20260905080022 21 129 0.0 0.0 0.00 0.53 0.00 92 1012.9
20260905075158 21 129 0.0 0.0 0.00 0.53 0.00 92 1012.8
20260905075125 21 129 0.0 0.0 0.00 0.53 0.00 92 1012.8
20260905074255 22 129 0.0 0.0 0.00 0.53 0.00 92 1012.8
20260905074223 22 129 0.0 0.0 0.00 0.53 0.00 92 1012.8
20260905073324 22 129 0.0 0.0 0.00 0.53 0.00 92 1012.6
20260905072423 22 129 0.0 0.0 0.00 0.53 0.00 93 1012.3
20260905071528 22 129 0.0 0.0 0.00 0.53 0.00 92 1011.9
20260905070623 22 129 0.0 0.0 0.00 0.53 0.00 92 1011.8
20260905065724 22 129 0.0 0.0 0.00 0.53 0.00 92 1011.8
20260905064822 22 129 0.0 0.0 0.00 0.53 0.00 92 1011.8
20260905063924 21 129 0.0 0.0 0.00 0.53 0.00 92 1012.1
20260905063023 22 129 0.0 0.0 0.00 0.53 0.00 92 1012.3
20260905062123 22 129 0.0 0.0 0.00 0.53 0.00 92 1012.5
20260905061223 22 129 0.0 0.0 0.00 0.53 0.00 92 1012.8
20260905060324 22 129 0.0 0.0 0.00 0.53 0.00 92 1012.8
20260905055422 22 129 0.0 0.0 0.00 0.53 0.00 92 1012.9
20260905054522 22 129 0.0 0.0 0.00 0.53 0.00 92 1013.0
20260905053623 22 129 0.0 0.0 0.00 0.53 0.00 92 1013.1
20260905052723 22 129 0.0 0.0 0.00 0.53 0.00 92 1013.2
20260905051822 22 129 0.0 0.0 0.00 0.53 0.00 92 1013.3
20260905050923 22 129 0.0 0.0 0.00 0.53 0.00 92 1013.3
20260905050023 22 129 0.0 0.0 0.00 0.53 0.00 92 1013.5
20260905045123 22 129 0.0 0.0 0.00 0.53 0.00 92 1013.5
20260905044224 22 129 0.0 0.0 0.00 0.53 0.00 91 1013.4
20260905043323 22 129 0.0 0.0 0.00 0.53 0.00 91 1013.5
20260905042423 22 129 0.0 0.0 0.00 0.53 0.00 91 1013.5
20260905041523 22 129 0.0 0.0 0.00 0.53 0.00 91 1013.6
20260905040622 22 129 0.0 0.0 0.00 0.53 0.00 91 1013.6
20260905035722 22 129 0.0 0.0 0.00 0.53 0.53 91 1013.5
20260905035242 22 129 0.0 0.0 0.00 0.53 0.53 91 1013.6
20260905035126 22 129 0.0 0.0 0.00 0.53 0.53 91 1013.6
20260905034822 22 129 0.0 0.0 0.00 0.53 0.53 91 1013.6
20260905033923 22 129 0.0 0.0 0.00 0.53 0.53 91 1013.6
20260905033025 22 129 0.0 0.0 0.00 0.53 0.53 91 1013.6
20260905032123 22 129 0.0 0.0 0.00 0.53 0.53 91 1013.6
20260905031222 22 129 0.0 0.0 0.00 0.53 0.53 91 1013.6
20260905030703 22 129 0.0 0.0 0.00 0.53 0.53 91 1013.5
20260905030430 22 129 0.0 0.0 0.00 0.53 0.53 91 1013.6
20260905030322 22 129 0.0 0.0 0.00 0.53 0.53 91 1013.6
20260905025422 22 129 0.0 0.0 0.00 0.53 0.53 91 1013.5
20260905024522 22 129 0.0 0.0 0.00 0.53 0.53 91 1013.5
20260905023622 22 129 0.0 0.0 0.00 0.53 0.53 91 1013.5
20260905022156 22 129 0.0 0.0 0.00 0.53 0.53 90 1013.6
20260905021823 22 129 0.0 0.0 0.00 0.53 0.53 90 1013.6
20260905020024 22 129 0.0 0.0 0.00 0.53 0.53 90 1013.4
20260905015123 22 129 0.0 0.0 0.00 0.53 0.53 90 1013.4
20260905014223 23 129 0.0 0.0 0.00 0.53 0.53 89 1013.3
20260905013323 23 129 0.0 0.0 0.00 0.53 0.53 89 1013.4
20260905012423 23 129 0.0 0.0 0.00 0.53 0.53 89 1013.3
20260905011523 23 129 0.0 0.0 0.00 0.53 0.53 89 1013.2
20260905010622 23 129 0.0 0.0 0.00 0.53 0.53 88 1013.3
20260905005753 23 129 0.0 0.0 0.00 0.53 0.53 88 1013.0
20260905005722 23 129 0.0 0.0 0.00 0.53 0.53 88 1013.0
20260905004822 23 129 0.0 0.0 0.00 0.53 0.53 87 1012.9
20260905004238 24 129 0.0 0.0 0.00 0.53 0.53 87 1012.8
20260905003921 24 129 0.0 0.0 0.00 0.53 0.53 87 1012.8
20260905003024 24 129 0.0 0.0 0.00 0.53 0.53 86 1012.8
20260905002124 25 129 0.0 0.0 0.00 0.53 0.53 85 1012.7
20260905001345 25 129 0.0 0.0 0.00 0.53 0.53 85 1012.7
20260905001255 25 129 0.0 0.0 0.00 0.53 0.53 85 1012.7
20260905001222 25 129 0.0 0.0 0.00 0.53 0.53 85 1012.7
20260905000325 25 129 0.0 0.0 0.00 0.53 0.53 85 1012.8
20260904235424 25 129 0.0 0.0 0.00 0.53 0.53 85 1012.8
20260904234523 26 129 0.0 0.0 0.00 0.53 0.53 84 1012.8
20260904233706 26 129 0.0 0.0 0.00 0.53 0.53 84 1013.1
20260904233623 26 129 0.0 0.0 0.00 0.53 0.53 84 1013.1
20260904232723 26 129 0.0 0.0 0.00 0.53 0.53 83 1013.1
20260904231823 26 129 0.0 1.6 0.00 0.53 0.53 83 1013.2
20260904230922 26 129 0.0 0.0 0.00 0.53 0.53 82 1013.3
20260904225200 27 129 0.0 0.0 0.00 0.53 0.53 81 1013.2
20260904225124 27 129 0.0 0.0 0.00 0.53 0.53 81 1013.2
20260904224223 27 129 0.0 1.6 0.00 0.53 0.53 80 1013.3
20260904222457 27 129 0.0 0.0 0.00 0.53 0.53 79 1013.3
20260904222422 27 129 0.0 0.0 0.00 0.53 0.53 79 1013.3
20260904221522 28 134 0.0 1.6 0.00 0.53 0.53 79 1013.4
20260904220624 28 154 0.0 1.6 0.00 0.53 0.53 77 1013.4
20260904215722 28 140 0.0 1.6 0.00 0.53 0.53 81 1013.3
20260904214823 27 129 0.0 1.6 0.00 0.53 0.53 82 1013.1
20260904213922 27 139 0.0 0.0 0.00 0.53 0.53 82 1013.0
20260904213023 26 121 1.6 4.8 0.00 0.53 0.53 84 1012.8
20260904211223 25 124 0.0 1.6 0.03 0.53 0.53 86 1013.3
20260904204522 26 156 0.0 0.0 0.13 0.53 0.53 89 1014.1
20260904203623 25 175 0.0 0.0 0.13 0.53 0.53 88 1013.9
20260904202723 25 78 0.0 0.0 0.13 0.53 0.53 86 1013.9
20260904201937 25 78 0.0 1.6 0.13 0.53 0.53 84 1014.0
20260904201824 25 78 0.0 1.6 0.13 0.53 0.53 84 1014.0
20260904200923 26 176 0.0 0.0 0.08 0.48 0.48 83 1014.3
20260904200023 27 171 1.6 1.6 0.00 0.41 0.41 82 1013.9
20260904195123 28 280 0.0 1.6 0.30 0.41 0.41 85 1013.6
20260904194222 28 41 0.0 0.0 0.41 0.41 0.41 88 1013.4
20260904193322 27 53 0.0 0.0 0.41 0.41 0.41 89 1013.4
20260904192424 27 53 0.0 0.0 0.41 0.41 0.41 89 1013.6
20260904191522 26 53 0.0 0.0 0.41 0.41 0.41 87 1013.6
20260904190622 26 53 0.0 1.6 0.41 0.41 0.41 85 1013.9
20260904185723 27 60 0.0 0.0 0.41 0.41 0.41 77 1013.9
20260904184823 32 326 4.8 4.8 0.00 0.00 0.00 66 1014.0
20260904183922 32 310 3.2 4.8 0.00 0.00 0.00 64 1013.9
20260904183023 32 312 1.6 3.2 0.00 0.00 0.00 68 1013.9
20260904182123 32 320 0.0 3.2 0.00 0.00 0.00 69 1014.1
20260904181223 32 311 3.2 4.8 0.00 0.00 0.00 63 1014.2
20260904180322 33 301 1.6 3.2 0.00 0.00 0.00 62 1014.4
20260904175422 33 314 4.8 4.8 0.00 0.00 0.00 62 1014.8
20260904174522 32 302 1.6 4.8 0.00 0.00 0.00 64 1014.9
20260904173623 33 305 3.2 4.8 0.00 0.00 0.00 63 1015.0
20260904172722 33 313 1.6 3.2 0.00 0.00 0.00 66 1015.0